TimeMST,TemperatureF,Dew PointF,Humidity,Sea Level PressureIn,VisibilityMPH,Wind Direction,Wind SpeedMPH,Gust SpeedMPH,PrecipitationIn,Events,Conditions,WindDirDegrees,DateUTC
12:15 AM,55.4,26.6,33,29.97,10.0,Calm,Calm,-,N/A,,Clear,0,2012-11-08 07:15:00
12:35 AM,55.4,26.6,33,29.96,10.0,Calm,Calm,-,N/A,,Clear,0,2012-11-08 07:35:00
12:55 AM,55.4,24.8,31,29.96,10.0,Calm,Calm,-,N/A,,Clear,0,2012-11-08 07:55:00
1:15 AM,53.6,24.8,33,29.96,10.0,ENE,5.8,-,N/A,,Clear,70,2012-11-08 08:15:00
1:35 AM,53.6,24.8,33,29.95,10.0,East,5.8,-,N/A,,Clear,100,2012-11-08 08:35:00
1:55 AM,51.8,24.8,35,29.95,9.0,South,4.6,-,N/A,,Clear,170,2012-11-08 08:55:00
2:15 AM,50.0,24.8,37,29.95,10.0,West,3.5,-,N/A,,Clear,260,2012-11-08 09:15:00
2:35 AM,51.8,26.6,38,29.94,10.0,Calm,Calm,-,N/A,,Clear,0,2012-11-08 09:35:00
2:55 AM,48.2,26.6,43,29.94,10.0,SW,3.5,-,N/A,,Clear,230,2012-11-08 09:55:00
3:35 AM,48.2,24.8,40,29.93,10.0,Calm,Calm,-,N/A,,Clear,0,2012-11-08 10:35:00
3:55 AM,48.2,26.6,43,29.92,10.0,Calm,Calm,-,N/A,,Clear,0,2012-11-08 10:55:00
4:15 AM,48.2,26.6,43,29.92,10.0,SSE,3.5,-,N/A,,Clear,150,2012-11-08 11:15:00
4:35 AM,46.4,26.6,46,29.92,10.0,Calm,Calm,-,N/A,,Clear,0,2012-11-08 11:35:00
5:15 AM,48.2,26.6,43,29.92,10.0,Calm,Calm,-,N/A,,Clear,0,2012-11-08 12:15:00
5:55 AM,51.8,24.8,35,29.92,10.0,NE,4.6,-,N/A,,Clear,50,2012-11-08 12:55:00
6:15 AM,50.0,26.6,40,29.92,10.0,North,3.5,-,N/A,,Clear,10,2012-11-08 13:15:00
6:35 AM,44.6,24.8,46,29.92,10.0,SW,3.5,-,N/A,,Clear,220,2012-11-08 13:35:00
6:55 AM,44.6,24.8,46,29.92,10.0,SW,3.5,-,N/A,,Clear,230,2012-11-08 13:55:00
7:15 AM,42.8,23.0,46,29.92,10.0,Calm,Calm,-,N/A,,Clear,0,2012-11-08 14:15:00
7:35 AM,44.6,24.8,46,29.92,10.0,Calm,Calm,-,N/A,,Clear,0,2012-11-08 14:35:00
7:55 AM,46.4,26.6,46,29.93,10.0,SSW,3.5,-,N/A,,Clear,200,2012-11-08 14:55:00
8:15 AM,48.2,26.6,43,29.93,10.0,Calm,Calm,-,N/A,,Clear,0,2012-11-08 15:15:00
8:35 AM,50.0,26.6,40,29.93,10.0,Calm,Calm,-,N/A,,Clear,0,2012-11-08 15:35:00
8:55 AM,51.8,28.4,41,29.94,10.0,SW,3.5,-,N/A,,Clear,230,2012-11-08 15:55:00
9:15 AM,51.8,26.6,38,29.93,10.0,SSW,4.6,-,N/A,,Clear,210,2012-11-08 16:15:00
9:35 AM,53.6,28.4,38,29.93,10.0,SSW,4.6,-,N/A,,Clear,200,2012-11-08 16:35:00
9:55 AM,55.4,28.4,36,29.92,10.0,Calm,Calm,-,N/A,,Clear,0,2012-11-08 16:55:00
10:15 AM,55.4,28.4,36,29.92,10.0,Calm,Calm,-,N/A,,Clear,0,2012-11-08 17:15:00
10:35 AM,57.2,28.4,33,29.91,10.0,Calm,Calm,-,N/A,,Clear,0,2012-11-08 17:35:00
10:55 AM,60.8,28.4,29,29.91,10.0,Calm,Calm,-,N/A,,Clear,0,2012-11-08 17:55:00
11:15 AM,60.8,28.4,29,29.91,10.0,West,4.6,-,N/A,,Clear,270,2012-11-08 18:15:00
11:35 AM,60.8,28.4,29,29.90,10.0,WNW,3.5,-,N/A,,Clear,300,2012-11-08 18:35:00
11:55 AM,60.8,28.4,29,29.89,10.0,SSW,5.8,-,N/A,,Clear,210,2012-11-08 18:55:00
12:15 PM,64.4,28.4,26,29.87,10.0,Calm,Calm,-,N/A,,Clear,0,2012-11-08 19:15:00
12:35 PM,66.2,28.4,24,29.86,10.0,Calm,Calm,-,N/A,,Clear,0,2012-11-08 19:35:00
12:55 PM,64.4,28.4,26,29.85,10.0,NNW,4.6,-,N/A,,Clear,340,2012-11-08 19:55:00
1:15 PM,64.4,30.2,28,29.85,10.0,Calm,Calm,-,N/A,,Clear,0,2012-11-08 20:15:00
1:35 PM,66.2,30.2,26,29.83,10.0,ESE,3.5,-,N/A,,Clear,110,2012-11-08 20:35:00
1:55 PM,71.6,28.4,20,29.82,10.0,West,9.2,16.1,N/A,,Clear,280,2012-11-08 20:55:00
2:15 PM,73.4,28.4,19,29.80,10.0,South,12.7,24.2,N/A,,Clear,180,2012-11-08 21:15:00
2:35 PM,75.2,26.6,17,29.79,10.0,SW,19.6,25.3,N/A,,Clear,230,2012-11-08 21:35:00
2:55 PM,75.2,26.6,17,29.79,10.0,SSW,24.2,34.5,N/A,,Clear,200,2012-11-08 21:55:00
3:15 PM,73.4,26.6,18,29.79,10.0,SSW,27.6,-,N/A,,Scattered Clouds,210,2012-11-08 22:15:00
3:35 PM,73.4,26.6,18,29.78,10.0,SSW,23.0,-,N/A,,Scattered Clouds,210,2012-11-08 22:35:00
3:55 PM,73.4,26.6,18,29.78,10.0,SSW,20.7,-,N/A,,Mostly Cloudy,210,2012-11-08 22:55:00
4:15 PM,71.6,26.6,19,29.78,10.0,SSW,17.3,25.3,N/A,,Overcast,210,2012-11-08 23:15:00
4:35 PM,71.6,26.6,19,29.77,10.0,South,20.7,24.2,N/A,,Overcast,190,2012-11-08 23:35:00
4:55 PM,71.6,26.6,19,29.77,10.0,South,16.1,-,N/A,,Overcast,190,2012-11-08 23:55:00
5:15 PM,71.6,26.6,19,29.76,10.0,SSW,23.0,27.6,N/A,,Overcast,200,2012-11-09 00:15:00
5:35 PM,69.8,28.4,21,29.76,10.0,South,20.7,31.1,N/A,,Overcast,190,2012-11-09 00:35:00
5:55 PM,69.8,28.4,21,29.75,10.0,South,16.1,-,N/A,,Overcast,190,2012-11-09 00:55:00
6:15 PM,69.8,30.2,23,29.75,10.0,South,11.5,23.0,N/A,,Overcast,190,2012-11-09 01:15:00
6:35 PM,69.8,33.8,27,29.75,10.0,South,13.8,20.7,N/A,,Overcast,170,2012-11-09 01:35:00
6:55 PM,69.8,33.8,27,29.75,10.0,SSE,9.2,-,N/A,,Overcast,150,2012-11-09 01:55:00
7:15 PM,66.2,33.8,30,29.75,10.0,SSE,19.6,-,N/A,,Overcast,160,2012-11-09 02:15:00
7:35 PM,66.2,32.0,28,29.75,10.0,SSE,15.0,-,N/A,,Overcast,150,2012-11-09 02:35:00
7:55 PM,66.2,33.8,30,29.75,10.0,SE,15.0,-,N/A,,Overcast,140,2012-11-09 02:55:00
8:15 PM,66.2,33.8,30,29.75,10.0,SSE,17.3,-,N/A,,Overcast,150,2012-11-09 03:15:00
8:35 PM,66.2,30.2,26,29.74,10.0,SSE,17.3,23.0,N/A,,Overcast,150,2012-11-09 03:35:00
8:55 PM,66.2,32.0,28,29.75,10.0,SSE,15.0,-,N/A,,Overcast,150,2012-11-09 03:55:00
9:15 PM,66.2,32.0,28,29.75,10.0,SSE,17.3,-,N/A,,Overcast,160,2012-11-09 04:15:00
9:35 PM,66.2,33.8,30,29.75,10.0,SSE,17.3,-,N/A,,Overcast,150,2012-11-09 04:35:00
9:55 PM,64.4,33.8,32,29.75,10.0,SSE,16.1,20.7,N/A,,Overcast,150,2012-11-09 04:55:00
10:15 PM,64.4,33.8,32,29.76,10.0,SSE,12.7,18.4,N/A,,Overcast,150,2012-11-09 05:15:00
10:35 PM,64.4,37.4,37,29.76,10.0,South,20.7,26.5,N/A,,Overcast,170,2012-11-09 05:35:00
10:55 PM,64.4,41.0,42,29.77,10.0,SSE,18.4,26.5,N/A,,Overcast,160,2012-11-09 05:55:00
11:15 PM,62.6,42.8,48,29.76,10.0,SSE,16.1,26.5,N/A,,Overcast,150,2012-11-09 06:15:00
11:35 PM,60.8,42.8,52,29.76,10.0,SE,10.4,-,N/A,,Overcast,130,2012-11-09 06:35:00
11:55 PM,60.8,42.8,52,29.76,10.0,SE,10.4,-,N/A,,Overcast,130,2012-11-09 06:55:00